Weather History for KHYR - May, 2012

Change the Weather History Date:

Monday, May 7, 2012

  Actual Average Record
Temperature  
Mean Temperature 56 °F -  
Max Temperature 68 °F 77 °F 82 °F (2000)
Min Temperature 43 °F 50 °F 30 °F (2004)
Degree Days  
Heating Degree Days 10    
Growing Degree Days 6 (Base 50)    
Moisture  
Dew Point 45 °F    
Average Humidity 78    
Maximum Humidity 100    
Minimum Humidity 38    
Precipitation  
Precipitation 0.01 in - - ()
Sea Level Pressure  
Sea Level Pressure 29.92 in    
Wind  
Wind Speed 2 mph (WSW)    
Max Wind Speed 12 mph    
Max Gust Speed 22 mph    
Visibility 8 miles    
Events Fog    
Averages and records for this station are not official NWS values.
T = Trace of Precipitation, MM = Missing Value Source: NWS Daily Summary

Daily Weather History Graph

Daily Weather History Graph

Search for Another Location

Airport or City:

Trip Planner

Search our weather history database for the weather conditions in past years. The results will help you decide how hot, cold, wet, or windy it might be!

Date:

Astronomy

May. 07, 2012 Rise Set
Actual Time 5:43 AM CDT 8:22 PM CDT
Civil Twilight 5:09 AM CDT 8:56 PM CDT
Nautical Twilight 4:26 AM CDT 9:39 PM CDT
Astronomical Twilight 3:36 AM CDT 10:29 PM CDT
Moon 10:39 PM CDT (5/7) 6:44 AM CDT (5/7)
Length of Visible Light 15h 47m
Length of Day
14h 39m
Waning Gibbous, 96% of the Moon is Illuminated
May 7
Waning Gibbous
May 12
Last Quarter
May 20
New
May 28
First Quarter
Jun 4
Full

Hourly Weather History & Observations

Time (CDT) Temp. Dew Point Humidity Pressure Visibility Wind Dir Wind Speed Gust Speed Precip Events Conditions
12:53 AM 48.0 °F 46.0 °F 93% 30.01 in 7.0 mi Calm Calm - N/A   Overcast
1:05 AM 48.2 °F 44.6 °F 87% 29.97 in 10.0 mi East 3.5 mph - N/A   Overcast
1:24 AM 48.2 °F 46.4 °F 93% 29.98 in 10.0 mi Calm Calm - N/A   Overcast
1:53 AM 48.0 °F 46.0 °F 93% 29.98 in 10.0 mi Calm Calm - N/A   Overcast
2:28 AM 48.2 °F 44.6 °F 87% 29.96 in 10.0 mi Calm Calm - N/A   Overcast
2:53 AM 48.0 °F 46.0 °F 93% 29.96 in 2.5 mi Calm Calm - N/A   Overcast
3:09 AM 48.2 °F 46.4 °F 93% 29.94 in 4.0 mi Calm Calm - N/A   Overcast
3:53 AM 48.0 °F 46.9 °F 96% 29.95 in 5.0 mi Calm Calm - N/A   Overcast
4:11 AM 48.2 °F 46.4 °F 93% 29.92 in 1.8 mi Calm Calm - N/A   Overcast
4:32 AM 48.2 °F 46.4 °F 93% 29.92 in 1.0 mi Calm Calm - N/A   Overcast
4:42 AM 48.2 °F 48.2 °F 100% 29.92 in 0.8 mi Calm Calm - N/A   Mist
4:53 AM 48.9 °F 48.0 °F 97% 29.94 in 0.5 mi Calm Calm - N/A Fog Fog
5:48 AM 48.2 °F 48.2 °F 100% 29.93 in 1.2 mi Calm Calm - 0.01 in   Overcast
5:53 AM 48.9 °F 48.0 °F 97% 29.94 in 1.8 mi Calm Calm - 0.01 in   Overcast
5:59 AM 48.2 °F 48.2 °F 100% 29.93 in 3.0 mi Calm Calm - N/A   Overcast
6:53 AM 50.0 °F 48.0 °F 93% 29.95 in 6.0 mi Calm Calm - N/A   Overcast
7:25 AM 48.2 °F 48.2 °F 100% 29.93 in 2.5 mi Calm Calm - N/A   Overcast
7:33 AM 48.2 °F 46.4 °F 93% 29.93 in 5.0 mi Calm Calm - N/A   Overcast
7:53 AM 48.9 °F 46.9 °F 93% 29.96 in 9.0 mi Calm Calm - N/A   Overcast
8:04 AM 48.2 °F 46.4 °F 93% 29.94 in 10.0 mi Calm Calm - N/A   Overcast
8:53 AM 48.9 °F 46.0 °F 90% 29.96 in 10.0 mi Variable 4.6 mph - N/A   Overcast
9:36 AM 51.8 °F 46.4 °F 82% 29.92 in 10.0 mi Variable 4.6 mph - N/A   Overcast
9:53 AM 52.0 °F 46.0 °F 80% 29.94 in 10.0 mi Variable 3.5 mph - N/A   Overcast
10:51 AM 55.4 °F 46.4 °F 72% 29.90 in 10.0 mi Variable 3.5 mph - N/A   Mostly Cloudy
10:53 AM 55.9 °F 48.0 °F 75% 29.92 in 10.0 mi Variable 4.6 mph - N/A   Mostly Cloudy
11:13 AM 55.4 °F 46.4 °F 72% 29.89 in 10.0 mi WSW 4.6 mph - N/A   Partly Cloudy
11:53 AM 60.1 °F 46.0 °F 60% 29.90 in 10.0 mi Variable 3.5 mph - N/A   Partly Cloudy
12:53 PM 63.0 °F 45.0 °F 52% 29.88 in 10.0 mi Variable 3.5 mph - N/A   Mostly Cloudy
1:53 PM 64.9 °F 42.1 °F 43% 29.87 in 10.0 mi West 8.1 mph - N/A   Partly Cloudy
2:53 PM 66.0 °F 39.9 °F 38% 29.87 in 10.0 mi WSW 9.2 mph 20.7 mph N/A   Clear
3:53 PM 66.0 °F 41.0 °F 40% 29.86 in 10.0 mi Variable 6.9 mph 18.4 mph N/A   Mostly Cloudy
4:53 PM 66.0 °F 42.1 °F 42% 29.85 in 10.0 mi West 11.5 mph 21.9 mph N/A   Mostly Cloudy
5:53 PM 64.9 °F 39.0 °F 39% 29.85 in 10.0 mi West 8.1 mph - N/A   Mostly Cloudy
6:53 PM 63.0 °F 39.0 °F 41% 29.84 in 10.0 mi Variable 6.9 mph - N/A   Mostly Cloudy
7:53 PM 60.1 °F 39.0 °F 46% 29.85 in 10.0 mi Variable 6.9 mph - N/A   Mostly Cloudy
8:53 PM 57.0 °F 37.9 °F 49% 29.86 in 10.0 mi Calm Calm - N/A   Clear
9:53 PM 50.0 °F 39.0 °F 66% 29.87 in 10.0 mi Calm Calm - N/A   Clear
10:53 PM 45.0 °F 39.0 °F 80% 29.86 in 10.0 mi Calm Calm - N/A   Clear
11:53 PM 43.0 °F 39.0 °F 86% 29.86 in 10.0 mi Calm Calm - N/A   Clear